Weather History for KMEM - January, 2013

Change the Weather History Date:

Monday, January 28, 2013

  Actual Average Record
Temperature  
Mean Temperature 66 °F 42 °F  
Max Temperature 73 °F 51 °F 77 °F (1975)
Min Temperature 58 °F 33 °F -1 °F (1940)
Degree Days  
Heating Degree Days 0 23  
Month to date heating degree days 587 669  
Since 1 July heating degree days 1614 1833  
Cooling Degree Days 1 0  
Month to date cooling degree days 5 0  
Year to date cooling degree days 5 0  
Growing Degree Days 15 (Base 50)    
Moisture  
Dew Point 56 °F    
Average Humidity 74    
Maximum Humidity 87    
Minimum Humidity 61    
Precipitation  
Precipitation 0.01 in 0.13 in 3.15 in (1874)
Month to date precipitation 5.94 3.58  
Year to date precipitation 5.94 3.58  
Snow  
Snow 0.00 in 0.10 in 5.50 in (1895)
Month to date snowfall T 1.7  
Since 1 July snowfall 0.9 1.9  
Snow Depth 0.00 in    
Sea Level Pressure  
Sea Level Pressure 30.11 in    
Wind  
Wind Speed 14 mph (South)    
Max Wind Speed 28 mph    
Max Gust Speed 32 mph    
Visibility 10 miles    
Events Rain    
T = Trace of Precipitation, MM = Missing Value Source: NWS Daily Summary

Daily Weather History Graph

Daily Weather History Graph

Search for Another Location

Airport or City:

Trip Planner

Search our weather history database for the weather conditions in past years. The results will help you decide how hot, cold, wet, or windy it might be!

Date:

Astronomy

Jan. 28, 2013 Rise Set
Actual Time 7:01 AM CST 5:24 PM CST
Civil Twilight 6:34 AM CST 5:51 PM CST
Nautical Twilight 6:04 AM CST 6:22 PM CST
Astronomical Twilight 5:34 AM CST 6:52 PM CST
Moon 7:13 PM CST (1/28) 7:32 AM CST (1/28)
Length of Visible Light 11h 17m
Length of Day
10h 23m
Full, 98% of the Moon is Illuminated
Jan 28
Full
Feb 3
Last Quarter
Feb 10
New
Feb 17
First Quarter
Feb 25
Full

Hourly Weather History & Observations

Time (CST) Temp. Dew Point Humidity Pressure Visibility Wind Dir Wind Speed Gust Speed Precip Events Conditions
12:54 AM 61.0 °F 52.0 °F 72% 30.13 in 10.0 mi South 11.5 mph - N/A   Overcast
1:54 AM 61.0 °F 52.0 °F 72% 30.14 in 10.0 mi South 13.8 mph - N/A   Overcast
2:54 AM 61.0 °F 51.1 °F 70% 30.14 in 10.0 mi South 16.1 mph - N/A   Overcast
3:54 AM 61.0 °F 52.0 °F 72% 30.14 in 10.0 mi South 15.0 mph - N/A   Overcast
4:54 AM 60.1 °F 53.1 °F 78% 30.14 in 10.0 mi South 10.4 mph 19.6 mph 0.00 in Rain Light Rain
5:54 AM 59.0 °F 54.0 °F 83% 30.14 in 10.0 mi South 15.0 mph - 0.00 in   Overcast
6:40 AM 59.0 °F 53.6 °F 82% 30.15 in 10.0 mi South 12.7 mph - 0.01 in   Overcast
6:54 AM 59.0 °F 55.0 °F 87% 30.15 in 10.0 mi South 13.8 mph - 0.01 in   Overcast
7:08 AM 59.0 °F 55.4 °F 88% 30.16 in 10.0 mi South 13.8 mph - N/A   Overcast
7:54 AM 61.0 °F 55.0 °F 81% 30.16 in 10.0 mi South 13.8 mph - N/A   Overcast
8:54 AM 60.1 °F 55.0 °F 83% 30.17 in 10.0 mi South 13.8 mph - N/A   Overcast
9:54 AM 62.1 °F 55.9 °F 80% 30.17 in 10.0 mi South 15.0 mph - N/A   Overcast
10:54 AM 64.0 °F 57.0 °F 78% 30.16 in 10.0 mi South 16.1 mph - N/A   Overcast
11:12 AM 64.4 °F 57.2 °F 77% 30.16 in 10.0 mi SSW 16.1 mph 21.9 mph N/A   Overcast
11:19 AM 64.4 °F 57.2 °F 77% 30.16 in 10.0 mi South 17.3 mph - N/A   Overcast
11:29 AM 64.4 °F 57.2 °F 77% 30.15 in 10.0 mi South 15.0 mph - N/A   Mostly Cloudy
11:54 AM 66.9 °F 57.9 °F 73% 30.14 in 10.0 mi SSW 16.1 mph 21.9 mph N/A   Mostly Cloudy
12:10 PM 68.0 °F 57.2 °F 68% 30.13 in 10.0 mi SSW 18.4 mph 26.5 mph N/A   Overcast
12:54 PM 69.1 °F 59.0 °F 70% 30.11 in 10.0 mi SSW 15.0 mph - N/A   Overcast
1:20 PM 69.8 °F 59.0 °F 68% 30.10 in 10.0 mi SSW 13.8 mph 19.6 mph N/A   Overcast
1:54 PM 71.1 °F 59.0 °F 66% 30.08 in 10.0 mi SSW 17.3 mph 23.0 mph N/A   Mostly Cloudy
2:54 PM 72.0 °F 57.9 °F 61% 30.07 in 10.0 mi SSW 19.6 mph 25.3 mph N/A   Scattered Clouds
3:54 PM 72.0 °F 57.9 °F 61% 30.06 in 10.0 mi South 16.1 mph 23.0 mph N/A   Scattered Clouds
4:54 PM 69.1 °F 57.9 °F 68% 30.06 in 10.0 mi SSW 11.5 mph 20.7 mph N/A   Mostly Cloudy
5:54 PM 68.0 °F 57.9 °F 70% 30.06 in 10.0 mi South 15.0 mph 21.9 mph N/A   Mostly Cloudy
6:54 PM 66.9 °F 57.0 °F 70% 30.06 in 10.0 mi South 12.7 mph - N/A   Mostly Cloudy
7:54 PM 66.0 °F 57.0 °F 73% 30.06 in 10.0 mi South 12.7 mph 20.7 mph N/A   Mostly Cloudy
8:54 PM 64.9 °F 57.0 °F 75% 30.06 in 10.0 mi South 16.1 mph - N/A   Overcast
9:54 PM 64.9 °F 57.0 °F 75% 30.06 in 10.0 mi South 16.1 mph 23.0 mph N/A   Overcast
10:54 PM 64.0 °F 57.0 °F 78% 30.06 in 10.0 mi South 10.4 mph - N/A   Mostly Cloudy
11:54 PM 63.0 °F 57.0 °F 81% 30.06 in 10.0 mi SSE 12.7 mph 17.3 mph N/A   Scattered Clouds